Home > Time Zones > World Clock > Weather > Chad > Sarh > Past weeks

Flag for Chad Weather past 2 weeks in Sarh, Chad

Now
73 °F

Passing clouds.


Feels Like: 70 °F
Forecast: 70 / 79 °F
Wind: No wind

Location: Sarh Airport

Current Time: Aug 21, 2014 at 11:33:48 PM

Latest Report: Aug 21, 2014 at 10:00 PM


Visibility: N/A

Pressure: 29.95 "Hg

Humidity: 94%

Dew point: 72 °F

Location of SarhLocation

Historic Weather in Sarh — Graph

°F

Sarh temperature yesterday

Maximum temperature yesterday: 91 °F (at 2:00 PM)
Minimum temperature yesterday: 73 °F (at 6:00 AM)
Average temperature yesterday: 82 °F

Past Weeks' High & Low Weather Summary

 TemperatureHumidityPressure
High91 °F (Aug 20, 2:00 PM)100% (Aug 7, 11:00 AM)30.04 "Hg (Aug 7, 11:00 AM)
Low57 °F (Aug 14, 11:00 AM)21% (Aug 18, 2:00 AM)29.83 "Hg (Aug 7, 4:00 PM)
Average78 °F81%29.93 "Hg
* Reported Aug 6 10:00 PM — Aug 21 10:00 PM, Sarh, Weather by CustomWeather, © 2014

Note: Actual official high and low records may vary slightly from our data, if they occured in-between our weather recording intervals... More about our weather records

Advertising

Sarh weather history for previous 24 hours

 ConditionsComfort  
Time TempWeatherWind HumidityBarometerVisibility
10:00 PM
Aug 21
73 °FPassing clouds.No wind94%29.95 "HgN/A
8:00 PM75 °FPassing clouds.No wind83%29.92 "HgN/A
7:00 PM75 °FPassing clouds.No wind83%29.89 "HgN/A
6:00 PM77 °FPassing clouds.7 mph79%29.89 "HgN/A
5:00 PM82 °FScattered clouds.5 mph66%29.89 "HgN/A
4:00 PM79 °FScattered clouds.5 mph74%29.89 "HgN/A
3:00 PM81 °FScattered clouds.6 mph70%29.92 "HgN/A
2:00 PM79 °FScattered clouds.7 mph74%29.95 "HgN/A
12:00 PM77 °FPartly sunny.9 mph74%29.98 "HgN/A
11:00 AM75 °FPartly sunny.12 mph83%29.98 "HgN/A
9:00 AM73 °FPartly sunny.8 mph83%30.01 "HgN/A
8:00 AM72 °FPassing clouds.No wind94%29.98 "HgN/A
7:00 AM72 °FPassing clouds.6 mph94%29.95 "HgN/A
6:00 AM72 °FThunderstorms. Scattered clouds.7 mph94%29.92 "HgN/A
4:00 AM72 °FThunderstorms. Passing clouds.15 mph94%29.92 "HgN/A
3:00 AM72 °FThunderstorms. Passing clouds.9 mph94%29.92 "HgN/A
1:00 AM73 °FThunderstorms. Passing clouds.12 mph89%29.89 "HgN/A
12:00 AM73 °FThunderstorms. Passing clouds.9 mph83%29.89 "HgN/A
11:00 PM
Aug 20
73 °FThunderstorms. Passing clouds.9 mph89%29.89 "HgN/A
Weather by CustomWeather, © 2014

See weather overviewHow to use our weather pages